Tracking 28790 objects as of 18-Apr-2024
HD Live streaming from Space Station
objects crossing your sky now

DELTA 1 DEB

Track DELTA 1 DEB now!
10-day predictions


NORAD ID: 15540
Int'l Code: 1976-077EU
Perigee: 1,370.5 km
Apogee: 2,303.4 km
Inclination: 102.7 °
Period: 123.3 minutes
Semi major axis: 8207 km
RCS: 0.045 m2 (small)
Launch date: July 29, 1976
Source: United States (US)
Launch site: AIR FORCE WESTERN TEST RANGE (AFWTR)

Note: This is SATELLITE DEBRIS
Your satellite tracking list
Your tracking list is empty




NASA's NSSDC Master Catalog

Two Line Element Set (TLE):
1 15540U 76077EU  24106.51180024  .00000101  00000-0  17078-2 0  9993
2 15540 102.6608 115.4364 0568269 200.5994 319.4741 11.67482076406516
Source of the keplerian elements: AFSPC